Bellin Run - 2008

10K Walk

Summary

Number of finishers:
3,895
Number of females:
2,953
Number of males:
931
Average time:
1:39:05

Results By

10K Walk - Results

Leaderboard
  • Male Participants
    1. John Houle 45:09
    2. Matthew Mineau 45:35
    3. William Shimen 50:11
    4. Eric Sonnenberg 50:48
    5. Johnathan Anderson 52:34
  • Female Participants
    1. Amy Vanroy 30:41
    2. Kathy Heili 35:16
    3. Lauren Kime 49:12
    4. Linsay Tinberg 51:12
    5. Dawn Nissen 55:41

displaying: 1 - 200 of 3598
number of records per page: [10] [25] [50] [100] [all]
[next 200 records]

    NO FN LN DIVISION OVERALL DIVPL SEXPL 5KSPLIT TIME PACE
14335 Amy Vanroy WALKR 1 1/3598 1/2953 - 30:41 4:57
13023 Kathy Heili WALKR 2 2/3598 2/2953 - 35:16 5:41
14548 Lauren Kime WALKR 5 3/3598 3/2953 24:27 49:12 7:56
10282 William Shimen WALKR 6 4/3598 3/931 22:19 50:11 8:05
13073 Linsay Tinberg WALKR 8 5/3598 4/2953 24:58 51:12 8:15
13366 Johnathan Anderson WALKR 9 6/3598 5/931 26:57 52:34 8:28
1941 Dawn Nissen WALKR 10 7/3598 5/2953 26:20 55:41 8:58
15096 Joe Domke WALKR 12 8/3598 7/931 25:07 55:53 9:00
14890 Jacqueline Schumacher WALKR 16 9/3598 8/2953 30:24 59:22 9:34
13120 Andrew Schmidt WALKR 17 10/3598 9/931 29:50 59:40 9:37
12603 Keven Diederich WALKR 18 11/3598 10/931 29:32 59:44 9:37
14453 Beau Nguyen WALKR 19 12/3598 11/931 29:10 59:52 9:39
11699 Jim Lauer WALKR 21 13/3598 12/931 30:32 1:00:06 9:41
14345 Lucas Vertz WALKR 22 14/3598 13/931 32:10 1:00:32 9:45
10915 Ruth Bloesl WALKR 23 15/3598 10/2953 29:54 1:00:55 9:49
12274 Brian Stoychoff WALKR 25 16/3598 14/931 30:36 1:01:11 9:51
14559 Mitchell Kukay WALKR 26 17/3598 15/931 28:12 1:01:16 9:52
12601 Cory Diederich WALKR 27 18/3598 16/931 29:18 1:01:43 9:56
14645 Mickey Adams WALKR 28 19/3598 12/2953 31:22 1:01:43 9:56
14581 Lisa Olson WALKR 29 20/3598 13/2953 31:23 1:01:44 9:57
13846 Michele Kuntze WALKR 32 21/3598 15/2953 30:23 1:02:03 10:00
11712 Christine Below WALKR 33 22/3598 16/2953 29:49 1:02:18 10:02
15296 Michael Josephson WALKR 34 23/3598 18/931 29:36 1:02:22 10:03
11779 Tammy Meyers WALKR 35 24/3598 17/2953 31:24 1:02:23 10:03
12684 Terry Wojcik WALKR 36 25/3598 18/2953 28:53 1:02:25 10:03
14041 Jessica Parrette WALKR 37 26/3598 19/2953 30:24 1:02:47 10:07
13989 Cortny Mueller WALKR 39 27/3598 21/2953 30:36 1:02:56 10:08
12560 Mary Sturzl WALKR 40 28/3598 22/2953 28:57 1:02:58 10:08
13542 Amber Dewitt WALKR 49 29/3598 28/2953 33:02 1:04:09 10:20
12477 Carolyn O'Donnell WALKR 50 30/3598 29/2953 28:39 1:04:11 10:20
15244 Matthew Winney WALKR 51 31/3598 22/931 28:39 1:04:11 10:20
14908 Bob Braun WALKR 52 32/3598 23/931 31:00 1:04:14 10:21
15058 Steve Vogel WALKR 53 33/3598 24/931 31:28 1:04:34 10:24
14235 Mary Spyhalski WALKR 54 34/3598 30/2953 - 1:04:39 10:25
11679 Dan Linnane WALKR 55 35/3598 25/931 34:39 1:04:41 10:25
13819 Shari Knapmiller WALKR 56 36/3598 31/2953 31:08 1:04:44 10:26
12170 Ryan Christnovich WALKR 58 37/3598 26/931 30:11 1:05:11 10:30
12026 Laurel Simons WALKR 59 38/3598 33/2953 31:40 1:05:14 10:30
15330 Stephanie Mleziva WALKR 61 39/3598 34/2953 30:49 1:05:28 10:32
    NO FN LN DIVISION OVERALL DIVPL SEXPL 5KSPLIT TIME PACE
11991 Joe Davis WALKR 62 40/3598 28/931 33:17 1:05:29 10:33
14590 Ronna Radke WALKR 63 41/3598 35/2953 33:27 1:05:46 10:35
11390 Jennifer Carr WALKR 64 42/3598 36/2953 32:44 1:05:51 10:36
11410 Candice Ollila WALKR 65 43/3598 37/2953 33:10 1:06:03 10:38
12578 Matt Berger WALKR 67 44/3598 30/931 38:47 1:06:31 10:43
12635 Jim Lenz WALKR 68 45/3598 31/931 32:43 1:06:40 10:44
14327 Art Vanfrachen WALKR 69 46/3598 32/931 32:02 1:06:45 10:45
15471 Elizabeth Immel WALKR 70 47/3598 38/2953 33:49 1:06:47 10:45
14791 Eric Immel WALKR 71 48/3598 33/931 33:49 1:06:48 10:46
12839 Christine Sticka WALKR 72 49/3598 39/2953 32:59 1:06:50 10:46
12362 Samantha Swiecichowski WALKR 73 50/3598 40/2953 31:58 1:06:58 10:47
15495 Amy Koch WALKR 75 51/3598 42/2953 33:14 1:07:10 10:49
14981 Ann Hein WALKR 76 52/3598 43/2953 33:17 1:07:17 10:50
11635 Lisa Cayer WALKR 77 53/3598 44/2953 33:04 1:07:40 10:54
14895 Jaci Stempski WALKR 79 54/3598 45/2953 30:24 1:07:54 10:56
15140 Debbie Butz WALKR 81 55/3598 46/2953 32:36 1:08:01 10:57
15139 Suzanne Butz WALKR 82 56/3598 47/2953 32:36 1:08:02 10:57
14515 Jill Feiler WALKR 83 57/3598 48/2953 31:56 1:08:08 10:58
11540 Melissa Klein WALKR 84 58/3598 49/2953 36:15 1:08:11 10:59
14047 Michael Peacock WALKR 85 59/3598 36/931 34:12 1:08:11 10:59
12766 Tom Wilquet WALKR 86 60/3598 37/931 34:36 1:08:12 10:59
11371 Kenneth White WALKR 87 61/3598 38/931 35:48 1:08:13 10:59
12752 Margaret Pickett WALKR 88 62/3598 50/2953 - 1:08:18 11:00
14074 Nicole Polarek WALKR 90 63/3598 52/2953 35:18 1:08:23 11:01
13698 Hailey Herro WALKR 92 64/3598 54/2953 32:42 1:08:26 11:01
14751 James Waigand WALKR 93 65/3598 39/931 32:44 1:08:37 11:03
11961 Debbie Lemmen WALKR 94 66/3598 55/2953 33:18 1:08:41 11:04
14752 Chris Warren WALKR 95 67/3598 40/931 33:55 1:08:51 11:05
12230 Cindy Swiecichowski WALKR 96 68/3598 56/2953 33:53 1:08:55 11:06
12970 Grant Newman WALKR 97 69/3598 41/931 35:35 1:09:08 11:08
14931 Katlin Legrave WALKR 98 70/3598 57/2953 34:02 1:09:10 11:08
14847 Julie Veeser WALKR 99 71/3598 58/2953 34:02 1:09:10 11:08
14463 Angela Ambord WALKR 100 72/3598 59/2953 34:01 1:09:17 11:09
12190 Julie Knier WALKR 101 73/3598 60/2953 34:10 1:09:22 11:10
14419 Beth Wolske WALKR 102 74/3598 61/2953 33:44 1:09:30 11:12
13491 Tammy Christensen WALKR 103 75/3598 62/2953 35:16 1:09:37 11:13
14710 Cathy Mortlock WALKR 104 76/3598 63/2953 34:01 1:09:40 11:13
14060 Preston Peterson WALKR 105 77/3598 42/931 35:40 1:09:45 11:14
15321 Michael Piontek WALKR 106 78/3598 43/931 34:22 1:09:47 11:14
14222 Traci Smith WALKR 107 79/3598 64/2953 32:29 1:09:48 11:14
    NO FN LN DIVISION OVERALL DIVPL SEXPL 5KSPLIT TIME PACE
12685 Sandra Yanda WALKR 108 80/3598 65/2953 33:36 1:09:57 11:16
14231 Brian Spencer WALKR 110 81/3598 44/931 34:19 1:10:02 11:17
13489 Cassandra Chilcote WALKR 111 82/3598 67/2953 34:01 1:10:02 11:17
14354 Allen Wagner WALKR 112 83/3598 45/931 37:12 1:10:03 11:17
15266 Karli Wolke WALKR 113 84/3598 68/2953 32:55 1:10:07 11:17
11825 Joel Egelhoff WALKR 115 85/3598 46/931 30:04 1:10:14 11:19
14909 Eric Cherney WALKR 116 86/3598 47/931 31:46 1:10:14 11:19
14881 Allie McDonald WALKR 117 87/3598 70/2953 32:46 1:10:18 11:19
13764 Jody Johnson WALKR 118 88/3598 71/2953 35:58 1:10:34 11:22
11438 Michele McCormick WALKR 119 89/3598 72/2953 33:30 1:10:39 11:23
14718 Tricia Paul WALKR 120 90/3598 73/2953 33:37 1:10:43 11:23
11962 Connie Lemmens WALKR 121 91/3598 74/2953 35:12 1:10:43 11:23
13597 Jamie Fonder WALKR 122 92/3598 75/2953 36:21 1:10:56 11:25
14815 Jennie Nielsen WALKR 123 93/3598 76/2953 33:07 1:10:57 11:26
13299 Chris McPherson WALKR 124 94/3598 77/2953 35:27 1:10:58 11:26
13795 Jami Kilpatrick WALKR 125 95/3598 78/2953 35:08 1:10:58 11:26
13220 Patrick Evans WALKR 126 96/3598 48/931 35:37 1:11:08 11:27
15403 Bria Schoening WALKR 130 97/3598 81/2953 36:12 1:11:12 11:28
14860 Tim Wilmet WALKR 131 98/3598 50/931 36:58 1:11:17 11:29
15277 Andrew Sprader WALKR 132 99/3598 51/931 36:13 1:11:21 11:29
14454 Stacy Paplham WALKR 133 100/3598 82/2953 35:47 1:11:28 11:31
12300 Beth Wadzinski WALKR 135 101/3598 84/2953 36:04 1:11:33 11:31
11416 Kelly Roskoski WALKR 136 102/3598 85/2953 36:04 1:11:33 11:31
10393 John Hallee WALKR 139 103/3598 52/931 34:51 1:11:35 11:32
12528 Heath Hoffmann WALKR 140 104/3598 0/0 35:33 1:11:43 11:33
12301 Heather Pansier WALKR 141 105/3598 88/2953 34:56 1:11:48 11:34
11887 Janice Krueger WALKR 142 106/3598 89/2953 38:30 1:11:52 11:34
14960 Brett Anderson WALKR 143 107/3598 53/931 34:38 1:11:55 11:35
11777 Corey Mertens WALKR 146 108/3598 92/2953 32:57 1:11:59 11:36
11395 Jackie Flanigan WALKR 147 109/3598 93/2953 37:40 1:12:02 11:36
11404 Janine Kaczmarek WALKR 148 110/3598 94/2953 37:41 1:12:02 11:36
13744 Maria Janowicz WALKR 149 111/3598 95/2953 33:42 1:12:09 11:37
14021 Daniel Olson WALKR 150 112/3598 54/931 34:50 1:12:10 11:37
11995 Matt Goethe WALKR 151 113/3598 55/931 34:16 1:12:10 11:37
12302 Holly Schlag WALKR 152 114/3598 96/2953 34:22 1:12:10 11:37
14287 Ann Thomson WALKR 153 115/3598 97/2953 33:49 1:12:12 11:38
12401 Jamie McLeod WALKR 154 116/3598 56/931 31:59 1:12:12 11:38
12146 Peggy Malcore WALKR 155 117/3598 98/2953 35:06 1:12:14 11:38
11893 Steve Ausloos WALKR 156 118/3598 57/931 36:11 1:12:30 11:41
15098 Jacquelin Steward WALKR 157 119/3598 99/2953 37:08 1:12:30 11:41
    NO FN LN DIVISION OVERALL DIVPL SEXPL 5KSPLIT TIME PACE
14913 Evan Dushack WALKR 158 120/3598 58/931 38:23 1:12:32 11:41
13081 Brenda Winney WALKR 159 121/3598 100/2953 37:08 1:12:33 11:41
11574 Sue Gottfried WALKR 161 122/3598 102/2953 36:43 1:12:35 11:41
15245 Bradley Eauclaire WALKR 162 123/3598 59/931 37:07 1:12:35 11:41
15111 Patrick Ryan WALKR 163 124/3598 60/931 35:30 1:12:38 11:42
11368 Anne Strauss WALKR 164 125/3598 103/2953 35:47 1:12:43 11:43
14457 Samuel Vandenheuvel WALKR 165 126/3598 61/931 35:26 1:12:46 11:43
14456 Margaret Nicholas WALKR 166 127/3598 104/2953 35:27 1:12:46 11:43
12822 Lorie Neumann WALKR 167 128/3598 105/2953 35:44 1:12:59 11:45
12607 Cindy Ferfecki WALKR 169 129/3598 106/2953 38:08 1:13:09 11:47
14381 Katie Weisshappel WALKR 170 130/3598 107/2953 37:34 1:13:09 11:47
14027 Wendy Orlopp WALKR 171 131/3598 108/2953 35:28 1:13:11 11:47
13004 Paula Bur WALKR 172 132/3598 109/2953 36:26 1:13:19 11:48
14398 Henry Willems WALKR 173 133/3598 63/931 34:09 1:13:19 11:48
14334 Jessi Vanoss WALKR 174 134/3598 110/2953 37:53 1:13:21 11:49
12985 Audrey Zigmund WALKR 175 135/3598 111/2953 34:33 1:13:23 11:49
12629 Sandy Kasten WALKR 176 136/3598 112/2953 36:41 1:13:27 11:50
14988 Stacey Hutzler WALKR 177 137/3598 113/2953 36:46 1:13:30 11:50
14426 Cody Zahm WALKR 178 138/3598 64/931 35:45 1:13:31 11:50
14644 Sally Zuleger WALKR 180 139/3598 115/2953 35:27 1:13:35 11:51
13006 Thomas Dahl WALKR 181 140/3598 65/931 36:27 1:13:36 11:51
12604 Viet Do WALKR 182 141/3598 66/931 35:51 1:13:37 11:51
14657 Stephanie Clark WALKR 183 142/3598 116/2953 35:51 1:13:37 11:51
11579 Heidi Hietpas WALKR 184 143/3598 117/2953 36:44 1:13:37 11:51
14302 Lori Tremble WALKR 185 144/3598 118/2953 35:50 1:13:40 11:52
12645 Ryan McEneany WALKR 186 145/3598 67/931 38:09 1:13:42 11:52
12644 Kristin McEneany WALKR 187 146/3598 119/2953 38:08 1:13:43 11:52
14432 Kyle Zeinemann WALKR 188 147/3598 68/931 38:26 1:13:47 11:53
14915 Ken Dushack WALKR 189 148/3598 69/931 38:23 1:13:51 11:53
14914 Joshua Dushack WALKR 190 149/3598 70/931 38:23 1:13:51 11:53
15163 Matthew Sprader WALKR 191 150/3598 71/931 36:13 1:13:54 11:54
13800 Chloe Kitzerow WALKR 193 151/3598 120/2953 38:27 1:13:59 11:55
11441 Tony Navarre WALKR 194 152/3598 73/931 35:41 1:13:59 11:55
14433 Sarah Zeinemann WALKR 195 153/3598 121/2953 38:25 1:14:00 11:55
14390 Steven Westenberg WALKR 196 154/3598 74/931 36:35 1:14:02 11:55
15060 Karla Oswald WALKR 197 155/3598 122/2953 35:02 1:14:06 11:56
12526 Joyce Haen WALKR 198 156/3598 123/2953 36:24 1:14:14 11:57
12529 Sue Manders WALKR 199 157/3598 124/2953 36:25 1:14:14 11:57
13486 Nick Champ WALKR 200 158/3598 75/931 36:48 1:14:16 11:57
13485 Jill Champ WALKR 201 159/3598 125/2953 36:49 1:14:17 11:58
    NO FN LN DIVISION OVERALL DIVPL SEXPL 5KSPLIT TIME PACE
12634 Bob Lemerond WALKR 202 160/3598 76/931 39:45 1:14:17 11:58
12683 Dave Wojcik WALKR 203 161/3598 77/931 31:10 1:14:17 11:58
12574 Dylan Baird WALKR 204 162/3598 78/931 33:14 1:14:27 11:59
13459 Lucas Bukowski WALKR 205 163/3598 79/931 36:48 1:14:28 12:00
14144 Carolyn Rukamp WALKR 207 164/3598 126/2953 36:00 1:14:29 12:00
13880 Lisa Ledvina WALKR 208 165/3598 127/2953 35:53 1:14:30 12:00
13253 Lori Mleziva WALKR 209 166/3598 128/2953 35:54 1:14:31 12:00
13188 Todd Nelson WALKR 210 167/3598 81/931 39:03 1:14:33 12:00
12341 Amy Meltesen WALKR 211 168/3598 129/2953 36:21 1:14:37 12:01
13458 James Bukowski WALKR 212 169/3598 82/931 36:48 1:14:38 12:01
11670 Kelly Anderson WALKR 213 170/3598 130/2953 37:20 1:14:49 12:03
13829 Marla Kopecky WALKR 214 171/3598 131/2953 37:22 1:14:51 12:03
12777 Alex Haupt WALKR 215 172/3598 83/931 35:22 1:14:54 12:04
14018 Jerry Nowicki WALKR 216 173/3598 84/931 43:17 1:14:55 12:04
14916 Wayne Duval WALKR 217 174/3598 85/931 36:21 1:15:00 12:05
13393 Wendy Towers WALKR 218 175/3598 132/2953 33:03 1:15:06 12:06
14216 Sandra Smidle WALKR 219 176/3598 133/2953 35:14 1:15:10 12:06
15113 Patricia Ryan WALKR 220 177/3598 134/2953 35:31 1:15:12 12:06
11702 Kathy Ambrosius WALKR 221 178/3598 135/2953 36:05 1:15:15 12:07
11703 Kim Ambrosius WALKR 222 179/3598 136/2953 36:05 1:15:15 12:07
14391 Patti Whiting WALKR 224 180/3598 138/2953 38:25 1:15:18 12:08
14315 Amanda Vandenheuvel WALKR 225 181/3598 139/2953 37:03 1:15:19 12:08
14377 Janice Weis WALKR 226 182/3598 140/2953 37:03 1:15:19 12:08
14029 William Oroyan WALKR 227 183/3598 86/931 39:22 1:15:37 12:11
14834 Danielle Schneider WALKR 228 184/3598 141/2953 37:11 1:15:38 12:11
13543 Tina Dewitt WALKR 229 185/3598 142/2953 38:51 1:15:39 12:11
11899 Amanda Breitenfeldt WALKR 230 186/3598 143/2953 39:09 1:15:41 12:11
11920 Jade Schiegg WALKR 231 187/3598 144/2953 39:09 1:15:42 12:11
12454 Barbara Kolitsch WALKR 232 188/3598 145/2953 35:49 1:15:46 12:12
14275 Michael Tewes WALKR 233 189/3598 87/931 36:56 1:15:48 12:12
12600 Casey Diederich WALKR 234 190/3598 88/931 30:10 1:15:51 12:13
13075 Lori Vandenberg WALKR 235 191/3598 146/2953 45:40 1:15:54 12:13
16356 Rachel Roedema WALKR 236 192/3598 147/2953 37:20 1:15:54 12:13
14522 Sheila Frieder WALKR 237 193/3598 148/2953 37:29 1:15:55 12:13
14724 Kelly Pierner WALKR 238 194/3598 149/2953 37:30 1:15:55 12:14
11335 Malique Cooley WALKR 239 195/3598 89/931 35:24 1:15:57 12:14
14116 Liza Rezach WALKR 240 196/3598 150/2953 37:48 1:16:00 12:14
15095 Cheryl Breit WALKR 241 197/3598 151/2953 37:56 1:16:08 12:16
15325 Cassandra Dorff WALKR 242 198/3598 152/2953 36:04 1:16:13 12:16
12995 Susan Anderson WALKR 243 199/3598 153/2953 37:59 1:16:13 12:16
    NO FN LN DIVISION OVERALL DIVPL SEXPL 5KSPLIT TIME PACE
13703 Emily Hicks WALKR 244 200/3598 154/2953 36:57 1:16:15 12:17

[next 200 records]

  • share - click this icon in the results above to share via Facebook, Twitter, email, and more
  • print - click this icon in the results above for a printable page
  • radius - click this icon in the results above to show finishers before and after